Torna al catalogo

MINOTAUR R/B

LostVLEO
NORAD 42925·ROCKET BODY·🇺🇸 United States

Lanciato Aug 26, 2017 da Cape Canaveral Space Force Station

Loading…

Prossimi Passaggi (prossime 24 ore)

TLE

ObsoletoSource: Space-Track

Epoca: Aug 4, 2024, 11:05 UTC

1 42925U 17050E   24217.46245176  .00005433  00000-0  40856-3 0  9997
2 42925   0.0506 188.6312 0008982 322.7484 208.6697 14.95381459378590

Traccia MINOTAUR R/B in tempo reale con AllMySat

Download on the App Store